When you browse on this site, cookies collect data to enhance your experience and personalize the content and advertising you see.
Visit our Privacy Policy to learn more. By continuing to use the site, you agree to this use of cookies and data.
  • In Deutschland
  • Länderverzeichnis
  • Für 7 Tage
  • Wassertemperatur
  • Satellitenkarten
  • Wetterkarte
  • Widgets
  • user-avatar
    Anmelden

    Stündliche Wetter Krawcowizna

    Heute, 23 Juli, Dienstag

    Zeit Temperatur Niederschläge Wind Luftdruck Luftfeuchtigkeit
    00:00 +16°C° 0 mm 1 m/S 754 mmHg 81%
    01:00 +15°C° 0 mm 1 m/S 754 mmHg 84%
    02:00 +15°C° 0 mm 1 m/S 754 mmHg 84%
    03:00 +15°C° 0 mm 1 m/S 754 mmHg 83%
    04:00 +15°C° 0 mm 1 m/S 754 mmHg 83%
    05:00 +16°C° 0 mm 1 m/S 754 mmHg 79%
    06:00 +17°C° 0 mm 2 m/S 754 mmHg 76%
    07:00 +18°C° 0 mm 2 m/S 754 mmHg 72%
    08:00 +18°C° 0 mm 3 m/S 754 mmHg 70%
    09:00 +18°C° 0 mm 3 m/S 754 mmHg 69%
    10:00 +19°C° 0 mm 4 m/S 754 mmHg 67%
    11:00 +19°C° 0 mm 4 m/S 753 mmHg 68%
    12:00 +19°C° 0 mm 4 m/S 753 mmHg 68%
    13:00 +20°C° 0 mm 4 m/S 753 mmHg 68%
    14:00 +20°C° 0 mm 4 m/S 753 mmHg 68%
    15:00 +21°C° 0 mm 4 m/S 753 mmHg 68%
    16:00 +21°C° 0 mm 4 m/S 753 mmHg 68%
    17:00 +20°C° 0 mm 4 m/S 753 mmHg 73%
    18:00 +19°C° 0 mm 3 m/S 753 mmHg 78%
    19:00 +18°C° 0 mm 3 m/S 752 mmHg 83%
    20:00 +17°C° 0 mm 3 m/S 753 mmHg 87%
    21:00 +16°C° 0 mm 2 m/S 753 mmHg 90%
    22:00 +15°C° 0 mm 2 m/S 753 mmHg 94%
    23:00 +15°C° 0 mm 2 m/S 753 mmHg 94%

    Morgen, 24 Juli, Mittwoch

    Zeit Temperatur Niederschläge Wind Luftdruck Luftfeuchtigkeit
    00:00 +15°C° 0 mm 2 m/S 753 mmHg 95%
    01:00 +14°C° 0 mm 1 m/S 753 mmHg 95%
    02:00 +14°C° 0 mm 1 m/S 753 mmHg 95%
    03:00 +14°C° 0 mm 1 m/S 753 mmHg 95%
    04:00 +14°C° 0 mm 1 m/S 753 mmHg 95%
    05:00 +16°C° 0 mm 1 m/S 753 mmHg 89%
    06:00 +18°C° 0 mm 1 m/S 753 mmHg 83%
    07:00 +19°C° 0 mm 2 m/S 753 mmHg 76%
    08:00 +20°C° 0 mm 2 m/S 753 mmHg 70%
    09:00 +23°C° 0 mm 2 m/S 753 mmHg 64%
    10:00 +24°C° 0 mm 2 m/S 753 mmHg 58%
    11:00 +25°C° 0 mm 2 m/S 753 mmHg 54%
    12:00 +26°C° 0 mm 2 m/S 753 mmHg 51%
    13:00 +27°C° 0 mm 2 m/S 753 mmHg 48%
    14:00 +27°C° 0 mm 3 m/S 753 mmHg 48%
    15:00 +27°C° 0 mm 3 m/S 753 mmHg 49%
    16:00 +27°C° 0 mm 3 m/S 753 mmHg 50%
    17:00 +25°C° 0 mm 2 m/S 753 mmHg 56%
    18:00 +24°C° 0 mm 2 m/S 752 mmHg 63%
    19:00 +23°C° 0 mm 1 m/S 752 mmHg 69%
    20:00 +22°C° 0 mm 1 m/S 753 mmHg 73%
    21:00 +20°C° 0 mm 1 m/S 753 mmHg 78%
    22:00 +19°C° 0 mm 1 m/S 753 mmHg 82%
    23:00 +19°C° 0 mm 1 m/S 753 mmHg 84%

    übermorgen, 25 Juli, Donnerstag

    Zeit Temperatur Niederschläge Wind Luftdruck Luftfeuchtigkeit
    00:00 +19°C° 0 mm 1 m/S 753 mmHg 87%
    01:00 +18°C° 0 mm 1 m/S 754 mmHg 89%
    02:00 +18°C° 0 mm 1 m/S 754 mmHg 90%
    03:00 +18°C° 0 mm 1 m/S 754 mmHg 91%
    04:00 +16°C° 0 mm 1 m/S 754 mmHg 92%
    05:00 +19°C° 0 mm 1 m/S 754 mmHg 87%
    06:00 +21°C° 0 mm 1 m/S 754 mmHg 81%
    07:00 +22°C° 0 mm 1 m/S 754 mmHg 76%
    08:00 +24°C° 0.1 mm 1 m/S 754 mmHg 70%
    09:00 +25°C° 0.1 mm 2 m/S 754 mmHg 64%
    10:00 +26°C° 0.1 mm 2 m/S 754 mmHg 58%
    11:00 +27°C° 0.1 mm 2 m/S 753 mmHg 55%
    12:00 +27°C° 0.1 mm 2 m/S 753 mmHg 51%
    13:00 +28°C° 0.1 mm 3 m/S 753 mmHg 48%
    14:00 +28°C° 0 mm 3 m/S 752 mmHg 48%
    15:00 +28°C° 0 mm 4 m/S 752 mmHg 48%
    16:00 +28°C° 0 mm 4 m/S 752 mmHg 48%
    17:00 +26°C° 0 mm 4 m/S 752 mmHg 58%
    18:00 +24°C° 0 mm 3 m/S 752 mmHg 67%
    19:00 +22°C° 0 mm 3 m/S 752 mmHg 76%
    20:00 +20°C° 0 mm 3 m/S 752 mmHg 79%
    21:00 +19°C° 0 mm 3 m/S 752 mmHg 83%
    22:00 +18°C° 0 mm 3 m/S 752 mmHg 86%
    23:00 +17°C° 0 mm 3 m/S 752 mmHg 88%

    26 Juli, Freitag

    Zeit Temperatur Niederschläge Wind Luftdruck Luftfeuchtigkeit
    00:00 +17°C° 0 mm 3 m/S 752 mmHg 91%
    01:00 +16°C° 0 mm 3 m/S 752 mmHg 94%
    02:00 +16°C° 0 mm 3 m/S 752 mmHg 94%
    03:00 +14°C° 0 mm 3 m/S 752 mmHg 95%
    04:00 +14°C° 0 mm 3 m/S 752 mmHg 95%
    05:00 +16°C° 0 mm 3 m/S 752 mmHg 89%
    06:00 +18°C° 0 mm 3 m/S 752 mmHg 83%
    07:00 +19°C° 0 mm 4 m/S 752 mmHg 77%
    08:00 +20°C° 0.1 mm 4 m/S 752 mmHg 74%
    09:00 +21°C° 0.1 mm 5 m/S 752 mmHg 71%
    10:00 +21°C° 0.1 mm 5 m/S 752 mmHg 68%
    11:00 +22°C° 0 mm 5 m/S 752 mmHg 66%
    12:00 +22°C° 0 mm 5 m/S 751 mmHg 64%
    13:00 +23°C° 0 mm 5 m/S 751 mmHg 63%
    14:00 +23°C° 0.1 mm 5 m/S 751 mmHg 64%
    15:00 +23°C° 0.1 mm 5 m/S 751 mmHg 65%
    16:00 +23°C° 0.1 mm 5 m/S 751 mmHg 67%
    17:00 +22°C° 0 mm 4 m/S 751 mmHg 72%
    18:00 +21°C° 0 mm 4 m/S 751 mmHg 77%
    19:00 +20°C° 0 mm 3 m/S 751 mmHg 82%
    20:00 +19°C° 0 mm 3 m/S 751 mmHg 86%
    21:00 +18°C° 0 mm 3 m/S 751 mmHg 89%
    22:00 +18°C° 0 mm 3 m/S 752 mmHg 93%
    23:00 +18°C° 0 mm 3 m/S 752 mmHg 93%

    27 Juli, Samstag

    Zeit Temperatur Niederschläge Wind Luftdruck Luftfeuchtigkeit
    00:00 +18°C° 0 mm 3 m/S 752 mmHg 93%
    01:00 +18°C° 0 mm 3 m/S 752 mmHg 93%
    02:00 +17°C° 0 mm 3 m/S 751 mmHg 94%
    03:00 +17°C° 0 mm 3 m/S 751 mmHg 95%
    04:00 +17°C° 0 mm 3 m/S 751 mmHg 96%
    05:00 +19°C° 0 mm 3 m/S 751 mmHg 91%
    06:00 +20°C° 0 mm 4 m/S 752 mmHg 85%
    07:00 +21°C° 0 mm 4 m/S 752 mmHg 80%
    08:00 +23°C° 0 mm 4 m/S 752 mmHg 73%
    09:00 +26°C° 0 mm 4 m/S 752 mmHg 65%
    10:00 +27°C° 0 mm 5 m/S 752 mmHg 58%
    11:00 +28°C° 0 mm 5 m/S 752 mmHg 56%
    12:00 +29°C° 0 mm 5 m/S 751 mmHg 54%
    13:00 +29°C° 0 mm 5 m/S 751 mmHg 52%
    14:00 +29°C° 0 mm 5 m/S 751 mmHg 52%
    15:00 +29°C° 0 mm 5 m/S 751 mmHg 51%
    16:00 +29°C° 0 mm 5 m/S 751 mmHg 51%
    17:00 +28°C° 0 mm 4 m/S 751 mmHg 57%
    18:00 +27°C° 0 mm 3 m/S 751 mmHg 63%
    19:00 +25°C° 0 mm 3 m/S 751 mmHg 70%
    20:00 +24°C° 0 mm 3 m/S 751 mmHg 75%
    21:00 +23°C° 0 mm 2 m/S 751 mmHg 81%
    22:00 +21°C° 0 mm 2 m/S 752 mmHg 86%
    23:00 +20°C° 0 mm 2 m/S 752 mmHg 88%

    28 Juli, Sonntag

    Zeit Temperatur Niederschläge Wind Luftdruck Luftfeuchtigkeit
    00:00 +20°C° 0 mm 2 m/S 752 mmHg 90%
    01:00 +19°C° 0 mm 2 m/S 752 mmHg 91%
    02:00 +19°C° 0 mm 2 m/S 752 mmHg 92%
    03:00 +19°C° 0 mm 2 m/S 752 mmHg 93%
    04:00 +19°C° 0 mm 2 m/S 752 mmHg 93%
    05:00 +20°C° 0 mm 2 m/S 752 mmHg 87%
    06:00 +23°C° 0 mm 2 m/S 752 mmHg 80%
    07:00 +24°C° 0 mm 2 m/S 752 mmHg 73%
    08:00 +26°C° 0 mm 3 m/S 752 mmHg 66%
    09:00 +28°C° 0 mm 3 m/S 752 mmHg 59%
    10:00 +29°C° 0 mm 3 m/S 752 mmHg 53%
    11:00 +30°C° 0 mm 3 m/S 752 mmHg 52%
    12:00 +30°C° 0 mm 3 m/S 752 mmHg 51%
    13:00 +30°C° 0 mm 4 m/S 751 mmHg 51%
    14:00 +30°C° 0 mm 3 m/S 751 mmHg 50%
    15:00 +30°C° 0 mm 3 m/S 751 mmHg 49%
    16:00 +30°C° 0 mm 3 m/S 751 mmHg 48%
    17:00 +29°C° 0 mm 3 m/S 751 mmHg 54%
    18:00 +28°C° 0 mm 2 m/S 751 mmHg 61%
    19:00 +26°C° 0 mm 2 m/S 751 mmHg 67%
    20:00 +25°C° 0 mm 2 m/S 751 mmHg 71%
    21:00 +24°C° 0 mm 2 m/S 752 mmHg 74%
    22:00 +23°C° 0 mm 2 m/S 752 mmHg 78%
    23:00 +21°C° 0 mm 2 m/S 752 mmHg 81%
    Mehr zeigen